GFSGBSN_con_lsi_132.txt.gz
Lid_Strength_Index
1 1 1 2 3 3 4 4 3 3 3 3 3 3 3 4 4 4 4 4 4 4 5 4 4 3 7 11 9 4 -1 -2 0 7 9 10 8 8 11 11 8 10 8 7 7 6 7
1 1 2 3 3 3 4 4 4 3 3 3 3 3 3 3 4 4 4 4 4 4 4 4 3 3 9 13 6 1 0 1 5 9 10 10 8 8 10 9 9 8 8 8 7 7 7
2 2 2 3 3 3 4 4 4 4 4 4 4 4 3 4 4 4 4 4 4 4 4 4 3 4 10 11 2 3 4 4 6 9 10 10 10 10 10 10 7 7 10 9 8 8 9
2 3 3 3 3 3 4 4 4 4 4 4 4 4 4 4 4 4 4 5 4 4 4 3 3 6 10 6 4 4 4 4 5 9 9 9 9 10 11 6 8 10 10 14 10 8 8
2 3 3 3 3 3 3 4 4 4 4 4 4 4 4 5 5 5 5 5 4 3 3 3 7 9 9 2 5 4 4 5 7 9 10 6 9 12 8 11 12 11 16 14 12 8 9
3 3 3 3 3 3 3 3 4 4 3 3 4 4 5 5 5 5 5 4 3 3 3 2 4 9 8 7 6 6 5 6 8 9 9 10 11 13 13 11 16 15 15 13 14 10 9
4 3 3 4 3 3 3 3 4 4 4 3 4 4 4 4 5 5 7 8 9 9 6 8 8 7 6 5 5 6 5 6 8 9 11 11 12 14 13 12 10 11 13 14 12 10 11
3 4 4 4 4 3 3 3 4 4 4 4 4 4 4 4 4 5 7 9 8 7 10 6 5 5 4 5 7 6 5 7 9 11 10 12 14 11 10 10 11 12 13 14 11 10 10
3 4 4 4 4 3 3 3 3 4 4 4 4 4 4 5 5 6 8 7 6 6 10 7 5 5 6 5 8 8 6 8 9 11 11 12 11 9 10 11 11 12 13 13 13 11 10
4 4 4 4 4 4 4 4 4 4 4 4 4 4 5 5 8 7 8 5 6 6 12 9 8 6 7 7 8 5 6 8 9 11 11 12 9 9 11 12 10 14 10 10 12 13 16
4 4 4 4 4 4 4 4 4 4 4 4 4 4 5 6 9 8 7 6 7 7 16 8 8 6 8 9 8 7 6 7 11 11 11 11 11 11 12 12 9 11 9 10 11 13 14
4 4 4 4 4 4 4 4 4 4 4 4 4 4 5 7 8 6 6 7 7 12 15 10 8 9 10 9 8 8 8 7 8 10 10 10 8 10 11 8 8 9 11 11 12 14 18
4 4 4 4 4 4 4 4 4 4 4 4 5 5 6 6 8 6 7 7 12 16 10 11 12 11 11 11 9 9 10 12 12 13 14 11 10 9 8 11 9 10 13 19 19 19 20
3 4 4 4 4 4 4 4 4 4 4 4 6 6 7 6 7 6 7 11 15 11 12 11 11 10 11 10 11 10 11 12 11 12 14 15 15 11 8 11 12 12 13 17 21 21 18
3 3 4 4 4 4 4 4 4 4 4 5 6 9 9 7 6 7 8 13 13 12 10 11 11 11 11 9 10 10 11 11 11 12 13 15 13 9 9 8 9 12 15 11 16 15 18
4 4 4 3 4 4 4 3 4 4 4 5 8 8 9 6 5 7 10 11 11 8 10 10 13 12 13 11 11 11 11 9 10 9 11 12 14 11 9 8 9 10 9 15 14 20 21
4 3 3 3 3 4 3 3 3 4 5 6 8 10 8 6 6 8 12 12 9 7 9 10 11 12 12 12 12 12 12 9 9 9 10 12 13 12 11 12 13 13 14 14 12 14 19
3 3 3 3 3 3 3 3 4 5 5 7 11 11 7 7 9 13 12 10 8 8 9 9 9 10 12 11 12 12 12 10 7 9 11 11 14 15 12 10 10 12 13 13 14 14 15
3 3 3 3 3 3 4 3 4 5 5 9 11 11 7 8 13 13 12 10 8 10 11 10 10 10 9 11 12 11 10 7 7 8 10 10 14 16 14 12 11 12 12 14 15 14 14
3 4 4 4 3 4 4 5 5 5 5 9 10 11 9 10 12 12 12 10 11 9 9 9 9 9 10 11 10 12 11 8 7 7 6 7 14 14 16 14 12 14 12 12 15 15 15
4 5 5 5 4 4 4 5 5 6 6 10 10 11 9 11 10 10 11 11 10 11 9 9 10 9 10 13 12 12 10 9 8 6 8 10 13 13 13 11 12 13 13 13 15 15 14
5 5 5 5 5 4 4 4 5 6 7 8 11 8 7 9 9 10 11 10 10 10 10 11 11 9 9 11 10 11 10 10 10 9 10 10 13 14 14 11 11 13 12 12 12 12 13
4 5 5 5 5 4 4 4 4 5 7 12 10 8 7 9 9 10 10 9 8 9 9 8 9 9 10 9 8 9 9 10 10 11 11 11 12 14 16 13 13 15 13 12 12 11 12
4 4 4 4 4 4 3 3 3 4 5 9 10 10 8 10 9 9 8 7 7 9 9 9 10 10 9 7 7 8 9 9 9 10 10 11 12 13 16 15 20 13 9 9 11 11 10
3 4 4 4 4 3 2 2 2 2 3 5 9 9 8 10 8 8 7 7 8 9 9 9 9 9 8 9 11 12 13 12 11 10 10 11 12 15 16 17 14 12 10 11 12 13 9
3 4 4 3 3 4 3 2 1 1 2 6 9 8 9 9 9 6 7 7 9 11 10 8 8 10 8 10 12 14 15 14 14 11 10 10 11 13 15 18 19 13 9 7 8 15 8
4 4 4 4 4 4 3 1 1 1 1 3 6 8 10 9 7 7 9 8 7 10 11 10 9 10 10 12 13 14 14 12 15 15 15 13 13 15 15 17 14 9 8 7 15 13 8
4 4 4 4 4 3 3 2 1 1 1 4 7 7 10 9 7 5 4 7 6 10 10 9 8 9 11 12 12 13 14 12 14 12 14 13 15 15 15 18 17 8 8 12 9 7 7
4 4 4 3 3 3 2 2 1 1 1 3 9 7 7 11 9 5 4 3 3 4 7 9 8 9 9 11 12 12 13 12 13 15 11 14 12 13 13 13 9 7 8 6 6 7 7

GFSGBSN_con_lsi_135.txt.gz
Lid_Strength_Index
1 1 2 3 3 3 4 4 3 3 3 3 3 3 4 4 4 4 4 4 4 4 4 4 4 3 5 9 8 3 -1 -2 1 5 7 6 5 5 9 7 6 8 8 7 6 7 7
2 2 3 3 3 3 4 4 4 4 4 4 3 3 4 4 4 4 4 4 4 4 4 4 3 3 6 8 3 -1 -0 2 5 6 7 5 4 6 8 7 8 7 7 7 7 7 7
2 3 3 3 3 3 4 4 4 4 3 3 4 3 4 4 4 4 4 4 4 4 4 4 3 4 8 8 1 -0 2 3 4 6 7 7 6 6 7 8 6 7 9 8 8 7 8
3 3 3 3 3 3 3 4 4 4 4 3 3 3 4 4 5 5 5 5 5 4 4 3 3 4 7 5 3 3 2 3 4 5 5 6 6 7 6 5 7 9 9 12 9 8 8
3 3 3 3 3 3 3 4 4 4 4 4 4 4 4 4 5 5 5 4 4 3 3 2 4 5 6 1 3 2 2 4 5 5 5 6 7 7 6 9 10 10 13 13 12 8 9
3 3 3 3 4 3 3 3 3 4 4 4 4 4 4 4 4 5 5 3 2 2 2 2 3 6 5 5 4 3 3 4 6 7 7 8 7 8 7 9 12 13 13 12 13 10 9
3 4 4 4 4 4 3 3 3 3 4 4 4 4 4 4 4 5 5 4 5 5 4 6 5 6 5 3 3 5 3 4 5 6 8 7 8 9 9 8 8 9 11 13 11 9 10
3 4 4 3 4 4 4 4 3 4 4 4 4 4 4 5 5 5 5 5 5 5 7 5 5 4 3 3 6 5 3 5 6 8 7 7 9 8 8 9 9 9 11 12 11 9 9
4 4 4 4 4 4 4 4 4 4 4 4 4 4 4 5 5 5 5 5 4 4 6 6 4 4 4 3 6 6 4 5 6 8 8 8 8 7 8 9 9 9 10 12 11 10 9
4 4 4 4 4 4 4 4 4 4 4 4 4 4 5 5 6 5 5 4 3 3 8 7 6 4 5 5 6 4 4 5 7 8 8 7 7 8 9 9 8 10 8 10 10 11 14
4 4 4 4 4 4 4 4 4 4 4 4 4 4 5 6 6 5 5 3 4 4 13 7 6 3 5 5 5 5 4 5 7 7 7 8 8 8 8 9 7 10 8 9 10 12 13
3 3 4 4 4 4 4 4 4 4 4 4 4 5 5 6 6 4 3 4 4 8 13 8 6 7 6 6 6 5 5 4 5 7 7 8 6 7 6 7 7 8 9 10 10 12 16
3 3 3 4 4 4 4 4 4 4 4 5 5 5 6 5 5 4 4 3 8 12 8 9 9 8 7 8 7 6 7 7 8 10 9 8 8 7 7 9 8 9 10 15 16 16 17
3 4 4 4 4 4 4 4 4 4 4 5 6 6 6 5 4 4 3 6 11 9 9 8 8 7 8 7 8 8 8 8 8 8 9 10 11 9 7 9 10 10 9 13 18 19 16
4 4 4 4 4 4 4 4 4 4 4 5 6 5 5 4 5 4 4 9 10 9 8 9 8 9 9 8 7 7 8 8 8 8 10 10 10 6 7 7 8 11 12 9 13 13 16
3 3 3 3 3 4 4 4 4 4 4 5 4 4 5 4 4 4 6 10 8 6 7 7 10 9 10 9 9 9 9 7 8 7 7 8 11 7 7 6 7 9 7 13 12 17 18
3 3 3 3 3 3 3 4 4 4 5 6 4 5 5 3 4 5 8 8 7 5 5 7 8 8 9 9 9 10 9 7 6 7 6 7 9 9 8 8 10 9 10 10 10 12 16
3 3 3 3 3 3 3 3 4 5 5 6 7 6 4 5 6 9 8 7 7 6 6 6 6 7 8 8 9 9 9 8 5 6 8 7 8 11 9 8 7 9 9 9 12 13 13
3 3 3 3 3 4 4 4 4 6 7 7 8 6 3 4 8 8 9 8 6 6 7 7 7 6 6 8 10 9 8 6 5 6 8 7 9 12 11 9 7 10 10 9 9 9 13
3 3 4 4 4 5 5 5 5 6 6 7 8 8 5 5 7 7 8 7 8 7 8 7 7 6 7 9 8 9 8 6 5 6 6 5 8 10 12 11 9 11 11 10 9 11 11
5 4 5 5 5 5 5 5 5 6 7 8 8 9 7 8 7 7 7 9 9 9 7 6 7 7 8 10 9 9 7 7 6 5 6 7 10 10 9 9 9 10 11 11 11 12 12
5 5 5 5 5 5 4 5 5 6 7 6 7 7 5 6 7 7 9 8 9 8 7 7 7 7 7 8 8 9 7 7 7 6 7 7 10 10 11 10 10 11 11 11 11 11 12
5 5 5 5 5 4 4 4 4 5 7 8 7 6 5 8 7 8 8 8 7 7 7 6 6 6 7 6 5 6 5 6 6 7 8 9 9 11 13 11 12 13 11 11 11 10 10
4 4 4 4 4 4 3 4 4 4 5 6 7 7 6 8 7 8 7 7 7 6 7 8 5 6 5 4 4 4 5 6 6 7 6 9 10 10 12 12 16 10 8 9 10 10 9
4 4 4 4 4 4 4 3 3 3 4 4 4 6 5 8 7 7 7 7 6 7 7 8 7 6 4 5 7 9 8 8 8 7 7 7 9 11 14 14 12 10 9 10 11 11 8
4 4 4 4 4 4 4 3 2 3 3 4 3 5 4 7 7 6 7 6 7 7 7 7 7 5 5 6 8 11 12 11 11 10 7 8 8 10 12 15 16 10 8 6 7 12 7
4 4 4 4 4 4 4 4 3 3 2 2 3 4 6 7 5 5 7 7 5 7 7 6 7 6 6 7 9 12 12 10 12 12 11 10 11 13 13 13 11 8 7 6 14 11 7
4 4 4 4 4 4 4 4 3 2 1 2 3 4 6 6 5 4 4 5 5 6 7 6 6 6 6 9 9 11 11 10 11 9 11 11 12 13 13 14 15 7 7 11 8 6 6
4 4 4 4 4 4 4 3 3 2 2 2 3 4 4 6 6 6 5 3 3 3 5 6 6 6 5 8 8 9 11 10 10 12 8 12 9 10 11 10 7 6 6 5 5 6 6

GFSGBSN_con_lsi_138.txt.gz
Lid_Strength_Index
2 2 3 3 3 3 3 3 3 3 3 3 3 3 4 4 4 3 3 4 4 4 4 3 3 3 3 5 5 0 -1 -2 1 4 4 4 4 4 7 5 6 7 7 6 6 6 6
3 3 3 3 3 3 3 3 3 3 3 3 3 3 4 4 4 4 4 4 4 4 4 3 3 3 4 6 1 -1 0 3 4 4 5 3 3 3 5 6 7 6 6 6 6 6 7
3 3 3 3 3 3 3 3 3 3 3 3 3 3 4 4 4 4 4 4 4 4 4 3 3 2 5 4 0 1 2 4 4 4 5 4 2 3 6 6 5 6 8 7 7 7 8
3 3 3 3 3 3 3 3 3 3 4 4 4 4 3 4 4 4 5 5 4 4 4 3 2 2 5 3 1 2 1 2 3 3 4 3 4 3 4 4 6 8 8 11 9 8 7
3 3 3 3 3 3 3 3 3 3 3 3 4 4 4 4 4 4 5 4 3 3 3 2 1 3 5 2 3 1 1 3 3 3 3 4 4 4 5 7 9 8 11 11 12 8 9
3 3 3 3 4 4 3 3 3 3 3 3 3 4 4 4 4 5 5 4 2 2 1 1 1 4 3 4 3 2 1 3 5 5 5 4 3 5 6 8 11 11 11 11 12 10 9
4 4 3 4 4 4 4 4 4 3 3 3 3 4 4 4 5 5 4 2 2 3 2 4 4 5 4 2 3 3 2 5 5 5 6 4 6 8 7 7 7 8 9 11 10 8 10
4 4 4 4 4 4 4 4 4 4 4 4 3 4 4 5 5 5 3 3 4 3 5 3 3 3 2 2 5 3 2 5 6 7 5 6 7 6 6 6 7 8 10 11 9 8 8
3 4 4 3 4 4 4 4 4 4 4 4 4 4 4 5 5 4 3 3 2 2 5 4 3 3 3 2 5 4 3 4 6 6 6 7 6 5 6 7 7 8 9 10 10 9 8
3 3 3 3 4 4 4 4 4 4 4 4 4 4 5 5 5 2 3 2 1 1 6 6 5 3 3 3 5 3 2 4 5 7 6 6 5 6 7 7 7 9 6 8 9 10 12
3 3 3 3 4 4 4 4 4 4 4 4 5 5 5 6 3 3 3 1 0 2 11 6 5 1 3 5 4 4 2 4 6 6 6 7 6 7 7 7 6 8 7 8 9 9 10
3 3 3 3 4 4 4 4 4 4 4 4 5 5 5 3 2 2 1 1 2 8 12 7 5 5 5 4 5 4 4 3 3 6 5 6 5 5 6 5 5 6 8 8 9 10 13
3 3 3 3 4 4 4 4 4 4 4 5 6 6 5 2 3 1 1 2 8 9 6 8 7 6 6 6 6 5 6 6 6 8 8 7 6 5 5 7 5 7 9 14 14 14 13
3 3 3 3 4 4 4 4 4 4 4 5 6 6 4 2 1 2 2 5 10 8 8 5 6 6 7 6 6 6 6 7 6 6 7 9 10 6 5 6 8 7 8 12 15 14 13
3 3 3 3 4 4 4 4 4 4 4 5 6 2 1 1 1 2 4 8 7 7 6 7 6 8 8 6 6 7 7 7 6 6 9 9 9 6 6 6 6 8 10 6 11 10 12
3 3 3 3 4 4 3 4 4 4 4 5 2 1 2 0 1 2 5 9 7 5 5 6 8 7 9 8 8 7 8 6 7 5 5 7 10 6 6 5 6 7 6 10 10 17 16
3 3 3 3 3 3 3 4 4 4 4 5 2 4 1 0 1 4 7 7 6 4 4 6 7 8 7 8 7 8 8 6 6 6 5 6 7 8 6 8 8 8 9 8 10 14 15
3 3 3 3 3 3 3 3 4 5 5 5 4 7 1 0 5 4 6 6 7 5 4 5 5 6 7 7 7 8 8 7 5 5 7 6 7 9 8 6 5 6 7 8 12 12 10
3 3 3 3 3 3 3 4 4 6 6 4 6 4 2 2 7 6 5 6 6 5 5 5 6 5 5 7 8 7 7 5 5 5 6 6 8 11 9 7 6 8 7 7 7 7 10
4 3 4 4 4 3 3 4 5 6 6 5 6 7 4 3 3 5 6 6 6 5 5 5 5 5 6 7 6 7 7 6 5 5 5 5 7 9 11 10 8 10 8 8 8 9 9
4 4 4 5 4 4 4 5 6 6 7 5 6 6 5 7 6 5 5 6 7 7 5 5 6 6 6 8 7 7 6 6 5 6 5 5 9 8 7 7 7 8 9 9 9 8 10
5 5 5 5 5 5 5 5 5 6 6 4 6 5 4 5 6 6 7 6 6 6 5 6 6 5 5 7 7 7 6 6 6 5 6 6 8 8 9 7 8 9 8 8 9 9 8
5 5 5 5 5 5 5 5 5 5 5 5 4 3 4 6 6 6 6 6 6 5 5 4 5 5 6 5 4 4 4 4 5 6 6 7 7 9 10 9 9 11 9 8 8 8 8
4 5 5 5 5 5 5 4 3 4 5 3 4 5 6 8 6 6 6 6 6 5 5 5 4 5 4 2 3 3 4 4 5 5 4 6 8 8 10 9 14 8 7 7 8 7 7
4 4 4 4 4 4 4 4 3 3 4 2 2 5 4 6 5 6 6 6 5 5 5 5 4 3 2 3 6 8 7 7 6 6 6 5 7 10 12 11 9 8 7 8 9 8 6
4 4 4 4 4 5 4 4 3 3 3 2 2 3 5 5 5 4 6 5 6 6 5 5 5 2 3 5 6 10 9 9 9 8 6 7 6 9 10 13 14 9 7 5 6 11 5
4 4 4 4 4 4 5 4 4 3 3 3 2 2 3 5 4 4 5 6 4 5 5 5 5 5 3 6 8 9 9 8 10 10 10 9 9 10 10 12 10 6 6 5 12 10 6
4 4 4 4 4 5 4 4 4 3 3 3 2 0 2 4 3 3 3 4 4 4 6 4 5 5 6 7 8 8 9 8 8 8 9 9 10 10 9 12 13 6 6 9 7 5 5
4 4 4 4 4 4 5 4 4 4 3 3 3 1 0 4 4 2 2 2 2 2 4 4 5 4 4 6 6 6 8 7 8 10 7 10 8 9 9 8 6 4 5 4 4 5 5

GFSGBSN_con_lsi_141.txt.gz
Lid_Strength_Index
2 2 2 3 3 3 3 3 3 3 3 3 3 3 3 4 4 4 3 4 4 4 3 3 3 2 2 3 4 -1 -2 -1 2 2 4 4 4 4 6 5 5 7 6 6 5 5 6
2 2 3 3 3 3 3 3 3 3 3 3 3 3 3 4 4 4 4 4 4 4 4 3 3 2 2 5 0 -1 0 2 3 3 3 3 3 3 4 5 7 6 6 6 6 6 6
2 2 3 3 3 3 3 3 3 3 3 3 3 3 3 3 4 4 4 4 4 4 4 3 2 1 2 3 0 1 2 3 3 3 4 3 2 3 4 6 4 5 8 7 7 7 7
3 3 3 3 3 3 3 3 3 3 3 3 3 3 3 3 4 4 4 4 4 3 3 3 2 1 4 1 0 1 1 3 3 3 2 2 2 3 3 4 5 7 7 11 8 8 7
3 3 3 3 4 4 4 3 3 3 3 3 3 3 3 4 4 4 5 4 3 2 2 2 1 2 5 2 3 1 1 3 3 3 2 3 2 3 4 7 8 7 12 13 11 7 9
3 3 3 3 4 4 4 4 4 4 3 3 3 3 4 4 4 5 5 4 2 2 1 -0 0 3 3 4 3 2 1 3 4 4 4 4 3 5 6 7 12 14 10 10 12 10 9
3 4 4 4 4 4 4 4 4 4 4 3 3 3 4 4 4 5 4 1 3 3 2 4 4 4 3 2 2 2 2 4 4 5 6 4 6 7 6 6 7 10 10 12 9 8 9
3 3 3 3 3 4 4 4 4 4 4 3 4 4 4 4 5 5 3 2 2 2 4 3 3 3 2 2 5 3 2 5 6 7 5 6 7 5 5 6 7 7 9 10 8 8 8
3 3 3 3 3 4 4 4 4 4 4 3 4 4 4 5 5 3 1 2 1 0 4 4 3 3 3 2 4 4 2 4 5 6 6 7 6 5 6 7 7 7 9 10 11 8 7
3 3 3 3 3 4 4 4 4 4 4 4 4 4 5 5 4 0 2 1 0 0 7 6 4 3 2 3 5 2 2 3 5 6 6 6 5 6 6 7 6 8 6 7 8 9 16
3 3 3 3 3 3 4 4 4 4 4 4 4 5 5 6 2 1 1 0 0 1 12 5 4 1 3 4 4 4 2 3 6 6 5 7 6 6 7 6 6 8 6 7 8 9 10
3 3 3 3 3 3 4 4 4 4 4 4 4 5 6 3 1 1 0 1 1 8 12 7 4 5 5 4 4 4 4 2 3 5 5 6 4 5 5 5 5 5 7 7 8 9 13
2 3 3 3 3 3 4 4 4 4 4 4 5 6 5 1 1 -0 0 2 8 10 6 7 6 5 5 6 5 5 5 6 7 8 8 6 6 5 5 6 5 6 8 12 13 13 13
2 2 3 3 3 3 4 4 4 4 4 5 6 6 4 1 -0 0 1 5 10 8 7 5 6 6 7 6 6 6 6 7 5 6 7 9 10 6 5 6 7 7 8 11 19 15 16
2 2 3 3 3 4 4 4 4 4 4 5 6 1 1 0 -0 0 3 8 8 7 6 6 6 7 7 6 6 6 6 7 6 5 8 8 9 5 5 5 5 7 9 6 10 10 13
2 2 3 3 3 3 4 4 4 4 4 5 3 2 2 -0 -1 1 5 9 6 5 5 5 8 7 8 7 7 7 7 6 6 5 4 7 9 6 5 5 5 6 7 9 8 16 16
3 3 3 3 3 3 3 4 4 4 5 5 2 3 1 -0 -0 3 8 6 6 5 4 6 7 7 7 7 7 7 7 6 5 5 5 6 7 8 6 7 7 7 8 8 8 12 18
3 3 3 3 3 3 3 3 4 5 5 5 4 7 0 0 5 5 6 5 7 5 4 5 5 6 7 6 7 7 8 6 4 4 6 5 7 9 8 6 5 8 10 8 10 13 11
4 3 4 4 3 3 3 3 4 5 5 3 5 5 1 2 8 6 5 5 5 5 6 5 6 5 5 6 8 7 6 5 4 5 6 6 8 10 9 7 6 7 6 6 10 10 12
4 4 4 4 4 3 3 4 4 5 5 4 5 8 4 4 5 5 6 6 6 4 5 5 5 5 6 6 5 7 7 5 4 4 4 4 7 8 10 10 8 9 8 8 8 15 11
3 4 5 5 5 4 3 4 5 5 5 4 5 7 4 7 6 6 5 5 6 6 5 4 5 5 6 7 7 7 6 6 5 6 5 5 8 7 7 7 7 8 10 11 9 8 10
2 3 4 5 5 5 4 5 4 5 6 4 6 6 3 5 4 5 7 6 6 5 5 6 6 5 5 7 6 7 6 6 6 5 5 5 8 7 8 7 7 8 7 7 8 8 8
3 3 4 4 5 5 5 5 5 5 6 4 3 3 5 6 5 6 6 5 6 5 4 4 5 5 6 5 4 4 4 4 4 5 6 7 7 8 10 7 8 10 8 7 7 7 7
3 4 4 4 4 5 5 5 5 5 5 2 2 4 6 8 6 6 5 5 5 5 5 4 4 5 4 2 3 3 4 4 4 4 4 6 7 8 10 8 13 7 6 6 7 7 7
3 4 4 4 4 4 4 4 4 3 4 2 1 3 4 6 5 5 5 5 5 4 5 4 4 3 2 3 6 7 7 6 6 5 5 5 6 9 11 11 8 7 6 7 7 8 5
3 4 4 4 4 4 4 4 4 3 4 3 1 1 3 5 5 4 5 5 6 6 5 4 3 2 2 5 6 10 10 8 8 7 5 5 6 8 9 13 15 8 6 5 5 10 5
3 4 4 4 4 4 4 4 4 4 4 3 2 -0 2 5 3 3 5 5 4 5 6 4 4 4 3 6 8 9 10 7 10 9 9 8 8 10 10 11 10 6 6 5 11 9 5
3 3 4 4 4 4 4 4 4 4 4 3 1 -1 2 4 3 2 2 4 4 4 6 4 5 4 5 7 7 8 9 8 8 7 8 9 9 9 9 11 12 5 6 8 6 4 5
3 4 4 4 4 4 4 4 4 4 4 4 2 0 1 3 3 1 1 1 2 2 4 4 4 4 4 6 6 6 9 7 8 10 6 9 7 8 9 9 5 4 4 3 4 4 4